Regional Weather Roundup
Issued by NWS

Home | Current Version | Previous Version | Text Only | Print | Product List | Glossary Off
Versions: 1 2 3 4 5 6 7 8 9 10 11 12 13 14 15 16 17 18 19 20 21 22 23 24 25 26 27 28 29 30 31 32 33 34 35 36 37 38 39 40 41 42 43 44 45 46 47 48 49 50

000
ASUS43 KIND 240809
RWRIN

WEATHER ROUNDUP FOR INDIANA
NATIONAL WEATHER SERVICE INDIANAPOLIS IN
400 AM EDT THU APR 24 2014

NOTE: "FAIR" INDICATES FEW OR NO CLOUDS BELOW 12,000 FEET WITH NO
SIGNIFICANT WEATHER AND/OR OBSTRUCTIONS TO VISIBILITY.

* - STATION DOES NOT REPORT WEATHER SUCH AS PRECIPITATION OR FOG.

+ - STATION NOT QUALITY CONTROLLED BY THE NATIONAL WEATHER SERVICE.
    USE DATA WITH CAUTION...ESPECIALLY DEWPOINT AND RELATIVE
    HUMIDITY OBSERVATIONS.

INZ001>003-010>013-019-020-240900-
NORTHWEST INDIANA

CITY           SKY/WX    TMP DP  RH WIND       PRES   REMARKS
GARY /AIRPORT/ CLOUDY    42  38  83 NE3       30.07S
LA PORTE +     CLOUDY    45  33  63 E5        30.07R
MICHIGAN CITY+ LGT RAIN  45  32  61 CALM      30.07S
MONTICELLO +   CLOUDY    50  38  63 E5        30.01F
RENSSELAER +   CLOUDY    46  41  81 NE6       30.04R
VALPARAISO     LGT RAIN  43  37  79 CALM      30.07R

$$

LMZ046-743>745-240900-
SOUTHERN LAKE MICHIGAN

STATION/POSITION TIME  TEMP WIND        PRES
                       AIR  DIR/SP/G
                 (UTC) (F)  (DEG/KT/KT) (MB)
MICHIGAN CITY    0800   46   50/  3/  4   N/A

$$

INZ004-005-014>016-021>024-240900-
NORTH CENTRAL INDIANA

CITY           SKY/WX    TMP DP  RH WIND       PRES   REMARKS
GOSHEN         CLOUDY    50  28  42 E7        30.07R
LOGANSPORT +   CLOUDY    46  37  71 E7        30.05R
PERU/GRISSOM   CLOUDY    50  39  66 E6        30.04R
ROCHESTER +    CLOUDY    52  32  46 E5        30.06R
SOUTH BEND     CLOUDY    49  31  49 E6        30.08R
WARSAW +       CLOUDY    48  30  49 E6        30.07R

$$

INZ006>009-017-018-025>027-240900-
NORTHEAST INDIANA

CITY           SKY/WX    TMP DP  RH WIND       PRES   REMARKS
ANGOLA *+      MOCLDY    46  34  61 SE6       30.08R
AUBURN +       CLOUDY    46  32  57 E7        30.09R
FORT WAYNE     CLOUDY    48  34  58 SE9       30.07S

$$

INZ028-029-035-036-043>045-051>053-240900-
WEST CENTRAL INDIANA

CITY           SKY/WX    TMP DP  RH WIND       PRES   REMARKS
GREENCASTLE +  MOCLDY    48  34  57 SE7       30.01F
LAFAYETTE      CLOUDY    50  36  58 SE8       30.02S
TERRE HAUTE    MOCLDY    51  35  54 SE6       30.00S

$$

INZ030>032-037>040-046>048-054>057-064-065-240900-
CENTRAL INDIANA

CITY           SKY/WX    TMP DP  RH WIND       PRES   REMARKS
CP ATTERBURY + MOCLDY    50  36  57 E3        30.04S
INDIANAPOLIS   CLOUDY    51  32  48 SE12      30.02S
-EAGLE CREEK   CLOUDY    52  31  44 SE7       30.02S
KOKOMO *+      CLOUDY    48  36  61 SE6       30.05R
MARION +       CLOUDY    49  32  51 SE8       30.06R
MT COMFORT *+  CLOUDY    50  36  57 SE9       30.04S
SHELBYVILLE    CLOUDY    53  34  48 SE12      30.03S
ZIONSVILLE +   RAIN      52  32  47 SE6       30.04S

$$

INZ033-034-041-042-049-050-058-059-240900-
EAST CENTRAL INDIANA

CITY           SKY/WX    TMP DP  RH WIND       PRES   REMARKS
MUNCIE           N/A     49  33  54 SE9       30.05S

$$

INZ060-061-067>069-081>083-085>088-240900-
SOUTHWEST INDIANA

CITY           SKY/WX    TMP DP  RH WIND       PRES   REMARKS
EVANSVILLE     MOCLDY    51  36  56 NE3       29.99F
HUNTINGBURG *+ MOCLDY    48  34  57 SE5       30.01R
WASHINGTON +   MOCLDY    46  37  71 SE3       30.00S

$$

INZ062-063-066-070>080-084-089>092-240900-
SOUTH CENTRAL AND SOUTHEAST INDIANA

CITY           SKY/WX    TMP DP  RH WIND       PRES   REMARKS
BLOOMINGTON    PTCLDY    52  33  48 E6        30.01F

$$




USA.gov is the U.S. government's official web portal to all federal, state and local government web resources and services.